Year,Month,Day,Hour,Minute,Value (Times are PST for temperature in C)
2018,06,11,00,00,7.20
2018,06,11,00,01,7.20
2018,06,11,00,02,7.20
2018,06,11,00,03,7.30
2018,06,11,00,04,7.30
2018,06,11,00,05,7.30
2018,06,11,00,06,7.20
2018,06,11,00,07,7.20
2018,06,11,00,08,7.20
2018,06,11,00,09,7.20
2018,06,11,00,10,7.20
2018,06,11,00,11,7.20
2018,06,11,00,12,7.20
2018,06,11,00,13,7.20
2018,06,11,00,14,7.20
2018,06,11,00,15,7.20
2018,06,11,00,16,7.20
2018,06,11,00,17,7.20
2018,06,11,00,18,7.10
2018,06,11,00,19,7.10
2018,06,11,00,20,7.10
2018,06,11,00,21,7.20
2018,06,11,00,22,7.20
2018,06,11,00,23,7.10
2018,06,11,00,24,7.10
2018,06,11,00,25,7.10
2018,06,11,00,26,7.10
2018,06,11,00,27,7.10
2018,06,11,00,28,7.00
2018,06,11,00,29,7.00
2018,06,11,00,30,7.00
2018,06,11,00,31,7.00
2018,06,11,00,32,7.00
2018,06,11,00,33,7.00
2018,06,11,00,34,7.00
2018,06,11,00,35,7.00
2018,06,11,00,36,7.00
2018,06,11,00,37,7.00
2018,06,11,00,38,7.00
2018,06,11,00,39,6.90
2018,06,11,00,40,6.90
2018,06,11,00,41,6.90
2018,06,11,00,42,6.90
2018,06,11,00,43,6.90
2018,06,11,00,44,7.00
2018,06,11,00,45,7.00
2018,06,11,00,46,7.00
2018,06,11,00,47,7.00
2018,06,11,00,48,7.00
2018,06,11,00,49,7.00
2018,06,11,00,50,7.00
2018,06,11,00,51,7.00
2018,06,11,00,52,6.90
2018,06,11,00,53,6.90
2018,06,11,00,54,6.90
2018,06,11,00,55,6.90
2018,06,11,00,56,6.90
2018,06,11,00,57,6.90
2018,06,11,00,58,6.80
2018,06,11,00,59,6.80
2018,06,11,01,00,6.80
2018,06,11,01,01,6.80
2018,06,11,01,02,6.80
2018,06,11,01,03,6.80
2018,06,11,01,04,6.80
2018,06,11,01,05,6.80
2018,06,11,01,06,6.70
2018,06,11,01,07,6.80
2018,06,11,01,08,6.80
2018,06,11,01,09,6.80
2018,06,11,01,10,6.80
2018,06,11,01,11,6.80
2018,06,11,01,12,6.70
2018,06,11,01,13,6.70
2018,06,11,01,14,6.70
2018,06,11,01,15,6.70
2018,06,11,01,16,6.70
2018,06,11,01,17,6.70
2018,06,11,01,18,6.70
2018,06,11,01,19,6.70
2018,06,11,01,20,6.60
2018,06,11,01,21,6.60
2018,06,11,01,22,6.60
2018,06,11,01,23,6.60
2018,06,11,01,24,6.60
2018,06,11,01,25,6.60
2018,06,11,01,26,6.60
2018,06,11,01,27,6.60
2018,06,11,01,28,6.60
2018,06,11,01,29,6.60
2018,06,11,01,30,6.60
2018,06,11,01,31,6.60
2018,06,11,01,32,6.60
2018,06,11,01,33,6.60
2018,06,11,01,34,6.60
2018,06,11,01,35,6.50
2018,06,11,01,36,6.50
2018,06,11,01,37,6.50
2018,06,11,01,38,6.40
2018,06,11,01,39,6.40
2018,06,11,01,40,6.40
2018,06,11,01,41,6.40
2018,06,11,01,42,6.50
2018,06,11,01,43,6.50
2018,06,11,01,44,6.50
2018,06,11,01,45,6.50
2018,06,11,01,46,6.50
2018,06,11,01,47,6.50
2018,06,11,01,48,6.50
2018,06,11,01,49,6.50
2018,06,11,01,50,6.50
2018,06,11,01,51,6.50
2018,06,11,01,52,6.40
2018,06,11,01,53,6.40
2018,06,11,01,54,6.40
2018,06,11,01,55,6.40
2018,06,11,01,56,6.40
2018,06,11,01,57,6.40
2018,06,11,01,58,6.40
2018,06,11,01,59,6.40
2018,06,11,02,00,6.40
2018,06,11,02,01,6.40
2018,06,11,02,02,6.40
2018,06,11,02,03,6.40
2018,06,11,02,04,6.30
2018,06,11,02,05,6.30
2018,06,11,02,06,6.30
2018,06,11,02,07,6.30
2018,06,11,02,08,6.30
2018,06,11,02,09,6.30
2018,06,11,02,10,6.30
2018,06,11,02,11,6.30
2018,06,11,02,12,6.30
2018,06,11,02,13,6.30
2018,06,11,02,14,6.30
2018,06,11,02,15,6.30
2018,06,11,02,16,6.30
2018,06,11,02,17,6.20
2018,06,11,02,18,6.20
2018,06,11,02,19,6.20
2018,06,11,02,20,6.20
2018,06,11,02,21,6.20
2018,06,11,02,22,6.20
2018,06,11,02,23,6.20
2018,06,11,02,24,6.20
2018,06,11,02,25,6.20
2018,06,11,02,26,6.20
2018,06,11,02,27,6.20
2018,06,11,02,28,6.20
2018,06,11,02,29,6.10
2018,06,11,02,30,6.10
2018,06,11,02,31,6.10
2018,06,11,02,32,6.10
2018,06,11,02,33,6.10
2018,06,11,02,34,6.10
2018,06,11,02,35,6.00
2018,06,11,02,36,6.00
2018,06,11,02,37,6.00
2018,06,11,02,38,6.00
2018,06,11,02,39,6.00
2018,06,11,02,40,5.90
2018,06,11,02,41,5.90
2018,06,11,02,42,5.90
2018,06,11,02,43,5.90
2018,06,11,02,44,5.90
2018,06,11,02,45,5.90
2018,06,11,02,46,5.90
2018,06,11,02,47,5.80
2018,06,11,02,48,5.80
2018,06,11,02,49,5.90
2018,06,11,02,50,5.90
2018,06,11,02,51,5.90
2018,06,11,02,52,5.90
2018,06,11,02,53,5.90
2018,06,11,02,54,6.00
2018,06,11,02,55,6.00
2018,06,11,02,56,6.00
2018,06,11,02,57,6.00
2018,06,11,02,58,6.00
2018,06,11,02,59,6.00
2018,06,11,03,00,6.00
2018,06,11,03,01,6.00
2018,06,11,03,02,6.00
2018,06,11,03,03,6.00
2018,06,11,03,04,5.90
2018,06,11,03,05,5.90
2018,06,11,03,06,5.90
2018,06,11,03,07,5.90
2018,06,11,03,08,5.90
2018,06,11,03,09,5.90
2018,06,11,03,10,5.90
2018,06,11,03,11,5.80
2018,06,11,03,12,5.80
2018,06,11,03,13,5.80
2018,06,11,03,14,5.90
2018,06,11,03,15,5.90
2018,06,11,03,16,5.90
2018,06,11,03,17,5.90
2018,06,11,03,18,5.90
2018,06,11,03,19,5.90
2018,06,11,03,20,5.90
2018,06,11,03,21,5.90
2018,06,11,03,22,5.80
2018,06,11,03,23,5.80
2018,06,11,03,24,5.80
2018,06,11,03,25,5.80
2018,06,11,03,26,5.80
2018,06,11,03,27,5.80
2018,06,11,03,28,5.70
2018,06,11,03,29,5.70
2018,06,11,03,30,5.70
2018,06,11,03,31,5.70
2018,06,11,03,32,5.70
2018,06,11,03,33,5.70
2018,06,11,03,34,5.70
2018,06,11,03,35,5.70
2018,06,11,03,36,5.70
2018,06,11,03,37,5.70
2018,06,11,03,38,5.70
2018,06,11,03,39,5.70
2018,06,11,03,40,5.70
2018,06,11,03,41,5.70
2018,06,11,03,42,5.80
2018,06,11,03,43,5.80
2018,06,11,03,44,5.80
2018,06,11,03,45,5.80
2018,06,11,03,46,5.80
2018,06,11,03,47,5.80
2018,06,11,03,48,5.80
2018,06,11,03,49,5.80
2018,06,11,03,50,5.70
2018,06,11,03,51,5.70
2018,06,11,03,52,5.70
2018,06,11,03,53,5.70
2018,06,11,03,54,5.60
2018,06,11,03,55,5.60
2018,06,11,03,56,5.60
2018,06,11,03,57,5.60
2018,06,11,03,58,5.60
2018,06,11,03,59,5.60
2018,06,11,04,00,5.60
2018,06,11,04,01,5.60
2018,06,11,04,02,5.60
2018,06,11,04,03,5.50
2018,06,11,04,04,5.50
2018,06,11,04,05,5.50
2018,06,11,04,06,5.50
2018,06,11,04,07,5.50
2018,06,11,04,08,5.50
2018,06,11,04,09,5.40
2018,06,11,04,10,5.40
2018,06,11,04,11,5.40
2018,06,11,04,12,5.40
2018,06,11,04,13,5.40
2018,06,11,04,14,5.40
2018,06,11,04,15,5.40
2018,06,11,04,16,5.40
2018,06,11,04,17,5.30
2018,06,11,04,18,5.30
2018,06,11,04,19,5.30
2018,06,11,04,20,5.30
2018,06,11,04,21,5.30
2018,06,11,04,22,5.40
2018,06,11,04,23,5.40
2018,06,11,04,24,5.40
2018,06,11,04,25,5.40
2018,06,11,04,26,5.40
2018,06,11,04,27,5.40
2018,06,11,04,28,5.40
2018,06,11,04,29,5.40
2018,06,11,04,30,5.40
2018,06,11,04,31,5.40
2018,06,11,04,32,5.40
2018,06,11,04,33,5.40
2018,06,11,04,34,5.30
2018,06,11,04,35,5.30
2018,06,11,04,36,5.30
2018,06,11,04,37,5.30
2018,06,11,04,38,5.30
2018,06,11,04,39,5.30
2018,06,11,04,40,5.30
2018,06,11,04,41,5.30
2018,06,11,04,42,5.30
2018,06,11,04,43,5.30
2018,06,11,04,44,5.30
2018,06,11,04,45,5.30
2018,06,11,04,46,5.30
2018,06,11,04,47,5.40
2018,06,11,04,48,5.40
2018,06,11,04,49,5.40
2018,06,11,04,50,5.40
2018,06,11,04,51,5.40
2018,06,11,04,52,5.40
2018,06,11,04,53,5.40
2018,06,11,04,54,5.40
2018,06,11,04,55,5.40
2018,06,11,04,56,5.40
2018,06,11,04,57,5.40
2018,06,11,04,58,5.40
2018,06,11,04,59,5.40
2018,06,11,05,00,5.40
2018,06,11,05,01,5.40
2018,06,11,05,02,5.40
2018,06,11,05,03,5.40
2018,06,11,05,04,5.40
2018,06,11,05,05,5.40
2018,06,11,05,06,5.40
2018,06,11,05,07,5.40
2018,06,11,05,08,5.40
2018,06,11,05,09,5.30
2018,06,11,05,10,5.30
2018,06,11,05,11,5.30
2018,06,11,05,12,5.30
2018,06,11,05,13,5.30
2018,06,11,05,14,5.30
2018,06,11,05,15,5.30
2018,06,11,05,16,5.30
2018,06,11,05,17,5.20
2018,06,11,05,18,5.20
2018,06,11,05,19,5.20
2018,06,11,05,20,5.20
2018,06,11,05,21,5.20
2018,06,11,05,22,5.20
2018,06,11,05,23,5.20
2018,06,11,05,24,5.20
2018,06,11,05,25,5.20
2018,06,11,05,26,5.20
2018,06,11,05,27,5.20
2018,06,11,05,28,5.20
2018,06,11,05,29,5.20
2018,06,11,05,30,5.20
2018,06,11,05,31,5.20
2018,06,11,05,32,5.20
2018,06,11,05,33,5.20
2018,06,11,05,34,5.10
2018,06,11,05,35,5.10
2018,06,11,05,36,5.10
2018,06,11,05,37,5.10
2018,06,11,05,38,5.10
2018,06,11,05,39,5.10
2018,06,11,05,40,5.10
2018,06,11,05,41,5.00
2018,06,11,05,42,5.00
2018,06,11,05,43,5.10
2018,06,11,05,44,5.10
2018,06,11,05,45,5.10
2018,06,11,05,46,5.00
2018,06,11,05,47,5.00
2018,06,11,05,48,5.00
2018,06,11,05,49,5.00
2018,06,11,05,50,5.00
2018,06,11,05,51,5.00
2018,06,11,05,52,5.00
2018,06,11,05,53,5.00
2018,06,11,05,54,5.00
2018,06,11,05,55,5.00
2018,06,11,05,56,5.00
2018,06,11,05,57,5.10
2018,06,11,05,58,5.10
2018,06,11,05,59,5.10
2018,06,11,06,00,5.10
2018,06,11,06,01,5.10
2018,06,11,06,02,5.10
2018,06,11,06,03,5.20
2018,06,11,06,04,5.20
2018,06,11,06,05,5.20
2018,06,11,06,06,5.20
2018,06,11,06,07,5.20
2018,06,11,06,08,5.20
2018,06,11,06,09,5.20
2018,06,11,06,10,5.20
2018,06,11,06,11,5.20
2018,06,11,06,12,5.20
2018,06,11,06,13,5.20
2018,06,11,06,14,5.20
2018,06,11,06,15,5.30
2018,06,11,06,16,5.30
2018,06,11,06,17,5.30
2018,06,11,06,18,5.30
2018,06,11,06,19,5.40
2018,06,11,06,20,5.40
2018,06,11,06,21,5.40
2018,06,11,06,22,5.40
2018,06,11,06,23,5.50
2018,06,11,06,24,5.50
2018,06,11,06,25,5.60
2018,06,11,06,26,5.60
2018,06,11,06,27,5.60
2018,06,11,06,28,5.60
2018,06,11,06,29,5.70
2018,06,11,06,30,5.70
2018,06,11,06,31,5.70
2018,06,11,06,32,5.70
2018,06,11,06,33,5.70
2018,06,11,06,34,5.70
2018,06,11,06,35,5.80
2018,06,11,06,36,5.80
2018,06,11,06,37,5.80
2018,06,11,06,38,5.80
2018,06,11,06,39,5.90
2018,06,11,06,40,5.90
2018,06,11,06,41,5.90
2018,06,11,06,42,5.90
2018,06,11,06,43,5.90
2018,06,11,06,44,6.00
2018,06,11,06,45,6.00
2018,06,11,06,46,6.00
2018,06,11,06,47,6.00
2018,06,11,06,48,5.90
2018,06,11,06,49,5.90
2018,06,11,06,50,6.00
2018,06,11,06,51,6.00
2018,06,11,06,52,6.00
2018,06,11,06,53,6.10
2018,06,11,06,54,6.10
2018,06,11,06,55,6.10
2018,06,11,06,56,6.20
2018,06,11,06,57,6.20
2018,06,11,06,58,6.20
2018,06,11,06,59,6.20
2018,06,11,07,00,6.30
2018,06,11,07,01,6.30
2018,06,11,07,02,6.30
2018,06,11,07,03,6.40
2018,06,11,07,04,6.40
2018,06,11,07,05,6.50
2018,06,11,07,06,6.60
2018,06,11,07,07,6.60
2018,06,11,07,08,6.60
2018,06,11,07,09,6.60
2018,06,11,07,10,6.60
2018,06,11,07,11,6.60
2018,06,11,07,12,6.70
2018,06,11,07,13,6.70
2018,06,11,07,14,6.70
2018,06,11,07,15,6.70
2018,06,11,07,16,6.70
2018,06,11,07,17,6.70
2018,06,11,07,18,6.70
2018,06,11,07,19,6.70
2018,06,11,07,20,6.70
2018,06,11,07,21,6.70
2018,06,11,07,22,6.80
2018,06,11,07,23,6.80
2018,06,11,07,24,6.90
2018,06,11,07,25,7.00
2018,06,11,07,26,7.10
2018,06,11,07,27,7.20
2018,06,11,07,28,7.20
2018,06,11,07,29,7.30
2018,06,11,07,30,7.40
2018,06,11,07,31,7.40
2018,06,11,07,32,7.50
2018,06,11,07,33,7.60
2018,06,11,07,34,7.60
2018,06,11,07,35,7.70
2018,06,11,07,36,7.70
2018,06,11,07,37,7.70
2018,06,11,07,38,7.70
2018,06,11,07,39,7.70
2018,06,11,07,40,7.80
2018,06,11,07,41,7.80
2018,06,11,07,42,7.80
2018,06,11,07,43,7.90
2018,06,11,07,44,7.90
2018,06,11,07,45,7.90
2018,06,11,07,46,7.90
2018,06,11,07,47,7.90
2018,06,11,07,48,8.00
2018,06,11,07,49,8.00
2018,06,11,07,50,8.10
2018,06,11,07,51,8.10
2018,06,11,07,52,8.20
2018,06,11,07,53,8.20
2018,06,11,07,54,8.30
2018,06,11,07,55,8.30
2018,06,11,07,56,8.30
2018,06,11,07,57,8.30
2018,06,11,07,58,8.30
2018,06,11,07,59,8.30
2018,06,11,08,00,8.30
2018,06,11,08,01,8.30
2018,06,11,08,02,8.30
2018,06,11,08,03,8.40
2018,06,11,08,04,8.50
2018,06,11,08,05,8.50
2018,06,11,08,06,8.60
2018,06,11,08,07,8.70
2018,06,11,08,08,8.80
2018,06,11,08,09,8.90
2018,06,11,08,10,9.00
2018,06,11,08,11,9.00
2018,06,11,08,12,9.10
2018,06,11,08,13,9.10
2018,06,11,08,14,9.10
2018,06,11,08,15,9.20
2018,06,11,08,16,9.20
2018,06,11,08,17,9.20
2018,06,11,08,18,9.30
2018,06,11,08,19,9.30
2018,06,11,08,20,9.40
2018,06,11,08,21,9.50
2018,06,11,08,22,9.70
2018,06,11,08,23,9.70
2018,06,11,08,24,9.80
2018,06,11,08,25,9.90
2018,06,11,08,26,9.90
2018,06,11,08,27,10.00
2018,06,11,08,28,10.00
2018,06,11,08,29,10.10
2018,06,11,08,30,10.20
2018,06,11,08,31,10.30
2018,06,11,08,32,10.40
2018,06,11,08,33,10.40
2018,06,11,08,34,10.50
2018,06,11,08,35,10.60
2018,06,11,08,36,10.70
2018,06,11,08,37,10.80
2018,06,11,08,38,10.90
2018,06,11,08,39,11.00
2018,06,11,08,40,11.00
2018,06,11,08,41,11.10
2018,06,11,08,42,11.10
2018,06,11,08,43,11.20
2018,06,11,08,44,11.20
2018,06,11,08,45,11.20
2018,06,11,08,46,11.20
2018,06,11,08,47,11.30
2018,06,11,08,48,11.30
2018,06,11,08,49,11.30
2018,06,11,08,50,11.40
2018,06,11,08,51,11.40
2018,06,11,08,52,11.50
2018,06,11,08,53,11.50
2018,06,11,08,54,11.60
2018,06,11,08,55,11.60
2018,06,11,08,56,11.70
2018,06,11,08,57,11.80
2018,06,11,08,58,11.90
2018,06,11,08,59,12.00
2018,06,11,09,00,12.00
2018,06,11,09,01,12.20
2018,06,11,09,02,12.20
2018,06,11,09,03,12.30
2018,06,11,09,04,12.30
2018,06,11,09,05,12.40
2018,06,11,09,06,12.50
2018,06,11,09,07,12.60
2018,06,11,09,08,12.70
2018,06,11,09,09,12.70
2018,06,11,09,10,12.70
2018,06,11,09,11,12.70
2018,06,11,09,12,12.70
2018,06,11,09,13,12.70
2018,06,11,09,14,12.70
2018,06,11,09,15,12.70
2018,06,11,09,16,12.70
2018,06,11,09,17,12.80
2018,06,11,09,18,12.80
2018,06,11,09,19,12.90
2018,06,11,09,20,12.90
2018,06,11,09,21,12.90
2018,06,11,09,22,12.90
2018,06,11,09,23,12.90
2018,06,11,09,24,12.80
2018,06,11,09,25,12.80
2018,06,11,09,26,12.80
2018,06,11,09,27,12.80
2018,06,11,09,28,12.80
2018,06,11,09,29,12.80
2018,06,11,09,30,12.80
2018,06,11,09,31,12.90
2018,06,11,09,32,12.90
2018,06,11,09,33,12.90
2018,06,11,09,34,12.90
2018,06,11,09,35,13.00
2018,06,11,09,36,13.00
2018,06,11,09,37,13.10
2018,06,11,09,38,13.20
2018,06,11,09,39,13.20
2018,06,11,09,40,13.30
2018,06,11,09,41,13.30
2018,06,11,09,42,13.40
2018,06,11,09,43,13.50
2018,06,11,09,44,13.60
2018,06,11,09,45,13.60
2018,06,11,09,46,13.70
2018,06,11,09,47,13.80
2018,06,11,09,48,13.90
2018,06,11,09,49,14.00
2018,06,11,09,50,14.10
2018,06,11,09,51,14.20
2018,06,11,09,52,14.30
2018,06,11,09,53,14.40
2018,06,11,09,54,14.40
2018,06,11,09,55,14.40
2018,06,11,09,56,14.40
2018,06,11,09,57,14.40
2018,06,11,09,58,14.50
2018,06,11,09,59,14.60
2018,06,11,10,00,14.60
2018,06,11,10,01,14.60
2018,06,11,10,02,14.70
2018,06,11,10,03,14.70
2018,06,11,10,04,14.70
2018,06,11,10,05,14.70
2018,06,11,10,06,14.60
2018,06,11,10,07,14.60
2018,06,11,10,08,14.50
2018,06,11,10,09,14.40
2018,06,11,10,10,14.30
2018,06,11,10,11,14.30
2018,06,11,10,12,14.40
2018,06,11,10,13,14.40
2018,06,11,10,14,14.40
2018,06,11,10,15,14.40
2018,06,11,10,16,14.40
2018,06,11,10,17,14.40
2018,06,11,10,18,14.30
2018,06,11,10,19,14.30
2018,06,11,10,20,14.20
2018,06,11,10,21,14.20
2018,06,11,10,22,14.30
2018,06,11,10,23,14.20
2018,06,11,10,24,14.20
2018,06,11,10,25,14.20
2018,06,11,10,26,14.20
2018,06,11,10,27,14.20
2018,06,11,10,28,14.30
2018,06,11,10,29,14.30
2018,06,11,10,30,14.40
2018,06,11,10,31,14.50
2018,06,11,10,32,14.50
2018,06,11,10,33,14.60
2018,06,11,10,34,14.60
2018,06,11,10,35,14.50
2018,06,11,10,36,14.40
2018,06,11,10,37,14.40
2018,06,11,10,38,14.30
2018,06,11,10,39,14.30
2018,06,11,10,40,14.30
2018,06,11,10,41,14.30
2018,06,11,10,42,14.30
2018,06,11,10,43,14.30
2018,06,11,10,44,14.30
2018,06,11,10,45,14.30
2018,06,11,10,46,14.30
2018,06,11,10,47,14.30
2018,06,11,10,48,14.30
2018,06,11,10,49,14.20
2018,06,11,10,50,14.20
2018,06,11,10,51,14.20
2018,06,11,10,52,14.20
2018,06,11,10,53,14.20
2018,06,11,10,54,14.20
2018,06,11,10,55,14.20
2018,06,11,10,56,14.20
2018,06,11,10,57,14.10
2018,06,11,10,58,14.10
2018,06,11,10,59,14.20
2018,06,11,11,00,14.10
2018,06,11,11,01,14.10
2018,06,11,11,02,14.10
2018,06,11,11,03,14.10
2018,06,11,11,04,14.20
2018,06,11,11,05,14.20
2018,06,11,11,06,14.20
2018,06,11,11,07,14.20
2018,06,11,11,08,14.20
2018,06,11,11,09,14.30
2018,06,11,11,10,14.30
2018,06,11,11,11,14.20
2018,06,11,11,12,14.20
2018,06,11,11,13,14.10
2018,06,11,11,14,14.10
2018,06,11,11,15,14.00
2018,06,11,11,16,14.00
2018,06,11,11,17,14.00
2018,06,11,11,18,14.10
2018,06,11,11,19,14.10
2018,06,11,11,20,14.10
2018,06,11,11,21,14.20
2018,06,11,11,22,14.20
2018,06,11,11,23,14.20
2018,06,11,11,24,14.30
2018,06,11,11,25,14.30
2018,06,11,11,26,14.30
2018,06,11,11,27,14.30
2018,06,11,11,28,14.30
2018,06,11,11,29,14.30
2018,06,11,11,30,14.40
2018,06,11,11,31,14.30
2018,06,11,11,32,14.30
2018,06,11,11,33,14.30
2018,06,11,11,34,14.30
2018,06,11,11,35,14.40
2018,06,11,11,36,14.40
2018,06,11,11,37,14.40
2018,06,11,11,38,14.50
2018,06,11,11,39,14.50
2018,06,11,11,40,14.60
2018,06,11,11,41,14.60
2018,06,11,11,42,14.50
2018,06,11,11,43,14.60
2018,06,11,11,44,14.60
2018,06,11,11,45,14.60
2018,06,11,11,46,14.60
2018,06,11,11,47,14.70
2018,06,11,11,48,14.70
2018,06,11,11,49,14.60
2018,06,11,11,50,14.60
2018,06,11,11,51,14.70
2018,06,11,11,52,14.70
2018,06,11,11,53,14.70
2018,06,11,11,54,14.80
2018,06,11,11,55,14.90
2018,06,11,11,56,15.00
2018,06,11,11,57,15.20
2018,06,11,11,58,15.30
2018,06,11,11,59,15.30
2018,06,11,12,00,15.30
2018,06,11,12,01,15.30
2018,06,11,12,02,15.30
2018,06,11,12,03,15.40
2018,06,11,12,04,15.50
2018,06,11,12,05,15.60
2018,06,11,12,06,15.70
2018,06,11,12,07,15.70
2018,06,11,12,08,15.70
2018,06,11,12,09,15.80
2018,06,11,12,10,15.90
2018,06,11,12,11,16.00
2018,06,11,12,12,16.00
2018,06,11,12,13,16.10
2018,06,11,12,14,16.10
2018,06,11,12,15,16.10
2018,06,11,12,16,16.00
2018,06,11,12,17,16.00
2018,06,11,12,18,16.00
2018,06,11,12,19,16.00
2018,06,11,12,20,16.00
2018,06,11,12,21,16.00
2018,06,11,12,22,16.00
2018,06,11,12,23,16.00
2018,06,11,12,24,16.10
2018,06,11,12,25,16.10
2018,06,11,12,26,16.20
2018,06,11,12,27,16.20
2018,06,11,12,28,16.30
2018,06,11,12,29,16.30
2018,06,11,12,30,16.30
2018,06,11,12,31,16.30
2018,06,11,12,32,16.30
2018,06,11,12,33,16.30
2018,06,11,12,34,16.30
2018,06,11,12,35,16.30
2018,06,11,12,36,16.30
2018,06,11,12,37,16.20
2018,06,11,12,38,16.20
2018,06,11,12,39,16.20
2018,06,11,12,40,16.20
2018,06,11,12,41,16.30
2018,06,11,12,42,16.30
2018,06,11,12,43,16.30
2018,06,11,12,44,16.40
2018,06,11,12,45,16.30
2018,06,11,12,46,16.30
2018,06,11,12,47,16.30
2018,06,11,12,48,16.30
2018,06,11,12,49,16.40
2018,06,11,12,50,16.40
2018,06,11,12,51,16.40
2018,06,11,12,52,16.50
2018,06,11,12,53,16.60
2018,06,11,12,54,16.70
2018,06,11,12,55,16.80
2018,06,11,12,56,16.80
2018,06,11,12,57,16.80
2018,06,11,12,58,16.80
2018,06,11,12,59,16.80
2018,06,11,13,00,16.80
2018,06,11,13,01,16.80
2018,06,11,13,02,16.80
2018,06,11,13,03,16.80
2018,06,11,13,04,16.80
2018,06,11,13,05,16.80
2018,06,11,13,06,16.90
2018,06,11,13,07,16.90
2018,06,11,13,08,16.90
2018,06,11,13,09,16.80
2018,06,11,13,10,16.80
2018,06,11,13,11,16.80
2018,06,11,13,12,16.80
2018,06,11,13,13,16.80
2018,06,11,13,14,16.80
2018,06,11,13,15,16.90
2018,06,11,13,16,17.00
2018,06,11,13,17,17.00
2018,06,11,13,18,17.10
2018,06,11,13,19,17.10
2018,06,11,13,20,17.20
2018,06,11,13,21,17.20
2018,06,11,13,22,17.20
2018,06,11,13,23,17.20
2018,06,11,13,24,17.20
2018,06,11,13,25,17.20
2018,06,11,13,26,17.30
2018,06,11,13,27,17.30
2018,06,11,13,28,17.30
2018,06,11,13,29,17.30
2018,06,11,13,30,17.30
2018,06,11,13,31,17.30
2018,06,11,13,32,17.20
2018,06,11,13,33,17.30
2018,06,11,13,34,17.30
2018,06,11,13,35,17.30
2018,06,11,13,36,17.40
2018,06,11,13,37,17.40
2018,06,11,13,38,17.40
2018,06,11,13,39,17.40
2018,06,11,13,40,17.40
2018,06,11,13,41,17.30
2018,06,11,13,42,17.30
2018,06,11,13,43,17.30
2018,06,11,13,44,17.30
2018,06,11,13,45,17.40
2018,06,11,13,46,17.40
2018,06,11,13,47,17.40
2018,06,11,13,48,17.40
2018,06,11,13,49,17.50
2018,06,11,13,50,17.50
2018,06,11,13,51,17.50
2018,06,11,13,52,17.40
2018,06,11,13,53,17.40
2018,06,11,13,54,17.50
2018,06,11,13,55,17.50
2018,06,11,13,56,17.50
2018,06,11,13,57,17.50
2018,06,11,13,58,17.60
2018,06,11,13,59,17.70
2018,06,11,14,00,17.70
2018,06,11,14,01,17.70
2018,06,11,14,02,17.60
2018,06,11,14,03,17.50
2018,06,11,14,04,17.50
2018,06,11,14,05,17.40
2018,06,11,14,06,17.30
2018,06,11,14,07,17.40
2018,06,11,14,08,17.50
2018,06,11,14,09,17.60
2018,06,11,14,10,17.70
2018,06,11,14,11,17.70
2018,06,11,14,12,17.70
2018,06,11,14,13,17.80
2018,06,11,14,14,17.80
2018,06,11,14,15,17.80
2018,06,11,14,16,17.80
2018,06,11,14,17,17.80
2018,06,11,14,18,17.80
2018,06,11,14,19,17.80
2018,06,11,14,20,17.70
2018,06,11,14,21,17.70
2018,06,11,14,22,17.60
2018,06,11,14,23,17.60
2018,06,11,14,24,17.50
2018,06,11,14,25,17.50
2018,06,11,14,26,17.40
2018,06,11,14,27,17.40
2018,06,11,14,28,17.40
2018,06,11,14,29,17.40
2018,06,11,14,30,17.40
2018,06,11,14,31,17.40
2018,06,11,14,32,17.40
2018,06,11,14,33,17.40
2018,06,11,14,34,17.40
2018,06,11,14,35,17.40
2018,06,11,14,36,17.50
2018,06,11,14,37,17.60
2018,06,11,14,38,17.70
2018,06,11,14,39,17.80
2018,06,11,14,40,17.90
2018,06,11,14,41,18.00
2018,06,11,14,42,18.10
2018,06,11,14,43,18.10
2018,06,11,14,44,18.00
2018,06,11,14,45,18.00
2018,06,11,14,46,17.90
2018,06,11,14,47,17.90
2018,06,11,14,48,18.00
2018,06,11,14,49,18.00
2018,06,11,14,50,18.10
2018,06,11,14,51,18.10
2018,06,11,14,52,18.10
2018,06,11,14,53,18.20
2018,06,11,14,54,18.20
2018,06,11,14,55,18.20
2018,06,11,14,56,18.20
2018,06,11,14,57,18.20
2018,06,11,14,58,18.20
2018,06,11,14,59,18.20
2018,06,11,15,00,18.30
2018,06,11,15,01,18.30
2018,06,11,15,02,18.40
2018,06,11,15,03,18.50
2018,06,11,15,04,18.50
2018,06,11,15,05,18.60
2018,06,11,15,06,18.70
2018,06,11,15,07,18.70
2018,06,11,15,08,18.80
2018,06,11,15,09,18.90
2018,06,11,15,10,18.90
2018,06,11,15,11,18.80
2018,06,11,15,12,18.80
2018,06,11,15,13,18.80
2018,06,11,15,14,18.70
2018,06,11,15,15,18.70
2018,06,11,15,16,18.60
2018,06,11,15,17,18.60
2018,06,11,15,18,18.50
2018,06,11,15,19,18.50
2018,06,11,15,20,18.40
2018,06,11,15,21,18.50
2018,06,11,15,22,18.50
2018,06,11,15,23,18.50
2018,06,11,15,24,18.50
2018,06,11,15,25,18.50
2018,06,11,15,26,18.50
2018,06,11,15,27,18.50
2018,06,11,15,28,18.60
2018,06,11,15,29,18.60
2018,06,11,15,30,18.60
2018,06,11,15,31,18.70
2018,06,11,15,32,18.70
2018,06,11,15,33,18.70
2018,06,11,15,34,18.70
2018,06,11,15,35,18.70
2018,06,11,15,36,18.70
2018,06,11,15,37,18.70
2018,06,11,15,38,18.70
2018,06,11,15,39,18.70
2018,06,11,15,40,18.70
2018,06,11,15,41,18.70
2018,06,11,15,42,18.70
2018,06,11,15,43,18.80
2018,06,11,15,44,18.80
2018,06,11,15,45,18.80
2018,06,11,15,46,18.80
2018,06,11,15,47,18.70
2018,06,11,15,48,18.70
2018,06,11,15,49,18.70
2018,06,11,15,50,18.70
2018,06,11,15,51,18.80
2018,06,11,15,52,18.80
2018,06,11,15,53,18.80
2018,06,11,15,54,18.80
2018,06,11,15,55,18.70
2018,06,11,15,56,18.70
2018,06,11,15,57,18.60
2018,06,11,15,58,18.60
2018,06,11,15,59,18.60
2018,06,11,16,00,18.60
2018,06,11,16,01,18.60
2018,06,11,16,02,18.60
2018,06,11,16,03,18.60
2018,06,11,16,04,18.70
2018,06,11,16,05,18.70
2018,06,11,16,06,18.70
2018,06,11,16,07,18.70
2018,06,11,16,08,18.70
2018,06,11,16,09,18.80
2018,06,11,16,10,18.90
2018,06,11,16,11,18.90
2018,06,11,16,12,19.00
2018,06,11,16,13,19.10
2018,06,11,16,14,19.00
2018,06,11,16,15,19.00
2018,06,11,16,16,19.00
2018,06,11,16,17,18.90
2018,06,11,16,18,18.80
2018,06,11,16,19,18.80
2018,06,11,16,20,18.80
2018,06,11,16,21,18.70
2018,06,11,16,22,18.70
2018,06,11,16,23,18.70
2018,06,11,16,24,18.80
2018,06,11,16,25,18.80
2018,06,11,16,26,18.90
2018,06,11,16,27,18.90
2018,06,11,16,28,18.90
2018,06,11,16,29,18.80
2018,06,11,16,30,18.80
2018,06,11,16,31,18.80
2018,06,11,16,32,18.80
2018,06,11,16,33,18.90
2018,06,11,16,34,18.90
2018,06,11,16,35,18.90
2018,06,11,16,36,18.80
2018,06,11,16,37,18.80
2018,06,11,16,38,18.70
2018,06,11,16,39,18.70
2018,06,11,16,40,18.70
2018,06,11,16,41,18.70
2018,06,11,16,42,18.70
2018,06,11,16,43,18.60
2018,06,11,16,44,18.60
2018,06,11,16,45,18.60
2018,06,11,16,46,18.60
2018,06,11,16,47,18.60
2018,06,11,16,48,18.70
2018,06,11,16,49,18.80
2018,06,11,16,50,18.80
2018,06,11,16,51,18.80
2018,06,11,16,52,18.70
2018,06,11,16,53,18.70
2018,06,11,16,54,18.70
2018,06,11,16,55,18.70
2018,06,11,16,56,18.60
2018,06,11,16,57,18.60
2018,06,11,16,58,18.50
2018,06,11,16,59,18.50
2018,06,11,17,00,18.50
2018,06,11,17,01,18.50
2018,06,11,17,02,18.50
2018,06,11,17,03,18.50
2018,06,11,17,04,18.50
2018,06,11,17,05,18.50
2018,06,11,17,06,18.50
2018,06,11,17,07,18.50
2018,06,11,17,08,18.50
2018,06,11,17,09,18.50
2018,06,11,17,10,18.50
2018,06,11,17,11,18.60
2018,06,11,17,12,18.70
2018,06,11,17,13,18.80
2018,06,11,17,14,18.90
2018,06,11,17,15,18.90
2018,06,11,17,16,18.90
2018,06,11,17,17,18.90
2018,06,11,17,18,18.80
2018,06,11,17,19,18.80
2018,06,11,17,20,18.70
2018,06,11,17,21,18.70
2018,06,11,17,22,18.70
2018,06,11,17,23,18.80
2018,06,11,17,24,18.80
2018,06,11,17,25,18.80
2018,06,11,17,26,18.90
2018,06,11,17,27,18.90
2018,06,11,17,28,19.00
2018,06,11,17,29,19.00
2018,06,11,17,30,19.00
2018,06,11,17,31,18.90
2018,06,11,17,32,18.90
2018,06,11,17,33,19.00
2018,06,11,17,34,18.90
2018,06,11,17,35,19.00
2018,06,11,17,36,19.00
2018,06,11,17,37,19.00
2018,06,11,17,38,19.00
2018,06,11,17,39,18.90
2018,06,11,17,40,18.80
2018,06,11,17,41,18.80